Time,TemperatureF,DewpointF,PressureIn,WindDirection,WindDirectionDegrees,WindSpeedMPH,WindSpeedGustMPH,Humidity,HourlyPrecipIn,Conditions,Clouds,dailyrainin,SoftwareType,DateUTC
2013-04-01 00:02:00,48.0,47.0,-100.00,NW,320,2.0,5.0,97,-99.99,,,-99.99,,2013-04-01 07:02:00,
2013-04-01 00:12:00,48.0,47.0,-100.00,NW,313,3.0,7.0,97,-99.99,,,-99.99,,2013-04-01 07:12:00,
2013-04-01 00:22:00,47.0,46.0,-100.00,NW,317,3.0,6.0,97,-99.99,,,-99.99,,2013-04-01 07:22:00,
2013-04-01 00:32:00,47.0,46.0,-100.00,NW,316,4.0,5.0,97,-99.99,,,-99.99,,2013-04-01 07:32:00,
2013-04-01 00:42:00,47.0,46.0,-100.00,NW,315,3.0,6.0,97,-99.99,,,-99.99,,2013-04-01 07:42:00,
2013-04-01 00:52:00,47.0,46.0,-100.00,NW,317,3.0,6.0,97,-99.99,,,-99.99,,2013-04-01 07:52:00,
2013-04-01 01:02:00,47.0,46.0,-100.00,NW,322,4.0,7.0,97,-99.99,,,-99.99,,2013-04-01 08:02:00,
2013-04-01 01:12:00,46.0,45.0,-100.00,NW,321,4.0,7.0,97,-99.99,,,-99.99,,2013-04-01 08:12:00,
2013-04-01 01:22:00,46.0,45.0,-100.00,NW,316,4.0,5.0,96,-99.99,,,-99.99,,2013-04-01 08:22:00,
2013-04-01 01:32:00,46.0,45.0,-100.00,NW,316,3.0,5.0,96,-99.99,,,-99.99,,2013-04-01 08:32:00,
2013-04-01 01:43:00,46.0,45.0,-100.00,NW,315,3.0,4.0,96,-99.99,,,-99.99,,2013-04-01 08:43:00,
2013-04-01 01:52:00,46.0,45.0,-100.00,NW,310,3.0,5.0,96,-99.99,,,-99.99,,2013-04-01 08:52:00,
2013-04-01 02:02:00,45.0,44.0,-100.00,WNW,299,4.0,5.0,96,-99.99,,,-99.99,,2013-04-01 09:02:00,
2013-04-01 02:12:00,45.0,44.0,-100.00,NW,322,3.0,5.0,96,-99.99,,,-99.99,,2013-04-01 09:12:00,
2013-04-01 02:22:00,45.0,44.0,-100.00,NW,321,4.0,5.0,97,-99.99,,,-99.99,,2013-04-01 09:22:00,
2013-04-01 02:33:00,45.0,44.0,-100.00,NNW,328,4.0,4.0,97,-99.99,,,-99.99,,2013-04-01 09:33:00,
2013-04-01 02:42:00,45.0,44.0,-100.00,NNW,336,2.0,3.0,97,-99.99,,,-99.99,,2013-04-01 09:42:00,
2013-04-01 02:52:00,45.0,44.0,-100.00,NNW,341,2.0,2.0,97,-99.99,,,-99.99,,2013-04-01 09:52:00,
2013-04-01 03:02:00,45.0,44.0,-100.00,NNW,342,2.0,3.0,96,-99.99,,,-99.99,,2013-04-01 10:02:00,
2013-04-01 03:12:00,45.0,44.0,-100.00,NNE,15,2.0,2.0,95,-99.99,,,-99.99,,2013-04-01 10:12:00,
2013-04-01 03:22:00,45.0,43.0,-100.00,ENE,77,1.0,2.0,94,-99.99,,,-99.99,,2013-04-01 10:22:00,
2013-04-01 03:33:00,45.0,43.0,-100.00,ENE,69,1.0,2.0,92,-99.99,,,-99.99,,2013-04-01 10:33:00,
2013-04-01 03:42:00,46.0,44.0,-100.00,ENE,66,1.0,3.0,91,-99.99,,,-99.99,,2013-04-01 10:42:00,
2013-04-01 03:52:00,45.0,42.0,-100.00,ESE,109,1.0,2.0,90,-99.99,,,-99.99,,2013-04-01 10:52:00,
2013-04-01 04:02:00,45.0,42.0,-100.00,ENE,69,2.0,2.0,90,-99.99,,,-99.99,,2013-04-01 11:02:00,
2013-04-01 04:12:00,45.0,42.0,-100.00,NNE,25,1.0,2.0,90,-99.99,,,-99.99,,2013-04-01 11:12:00,
2013-04-01 04:22:00,45.0,42.0,-100.00,NNW,344,1.0,2.0,90,-99.99,,,-99.99,,2013-04-01 11:22:00,
2013-04-01 04:32:00,45.0,42.0,-100.00,NW,319,2.0,4.0,90,-99.99,,,-99.99,,2013-04-01 11:32:00,
2013-04-01 04:42:00,44.0,42.0,-100.00,NW,314,2.0,5.0,93,-99.99,,,-99.99,,2013-04-01 11:42:00,
2013-04-01 04:52:00,43.0,42.0,-100.00,WNW,301,4.0,4.0,95,-99.99,,,-99.99,,2013-04-01 11:52:00,
2013-04-01 05:02:00,44.0,43.0,-100.00,West,261,1.0,4.0,96,-99.99,,,-99.99,,2013-04-01 12:02:00,
2013-04-01 05:12:00,44.0,43.0,-100.00,WNW,288,1.0,2.0,96,-99.99,,,-99.99,,2013-04-01 12:12:00,
2013-04-01 05:22:00,44.0,43.0,-100.00,WNW,297,1.0,1.0,97,-99.99,,,-99.99,,2013-04-01 12:22:00,
2013-04-01 05:32:00,44.0,43.0,-100.00,NW,315,1.0,2.0,97,-99.99,,,-99.99,,2013-04-01 12:32:00,
2013-04-01 05:42:00,44.0,43.0,-100.00,North,357,1.0,2.0,97,-99.99,,,-99.99,,2013-04-01 12:42:00,
2013-04-01 05:52:00,44.0,43.0,-100.00,North,10,1.0,3.0,97,-99.99,,,-99.99,,2013-04-01 12:52:00,
2013-04-01 06:02:00,44.0,43.0,-100.00,North,5,2.0,3.0,97,-99.99,,,-99.99,,2013-04-01 13:02:00,
2013-04-01 06:12:00,44.0,43.0,-100.00,North,356,2.0,4.0,97,-99.99,,,-99.99,,2013-04-01 13:12:00,
2013-04-01 06:22:00,44.0,43.0,-100.00,North,350,2.0,4.0,97,-99.99,,,-99.99,,2013-04-01 13:22:00,
2013-04-01 06:32:00,44.0,43.0,-100.00,North,351,2.0,4.0,96,-99.99,,,-99.99,,2013-04-01 13:32:00,
2013-04-01 06:42:00,44.0,43.0,-100.00,North,356,3.0,3.0,96,-99.99,,,-99.99,,2013-04-01 13:42:00,
2013-04-01 06:52:00,44.0,43.0,-100.00,North,350,2.0,2.0,96,-99.99,,,-99.99,,2013-04-01 13:52:00,
2013-04-01 07:02:00,44.0,43.0,-100.00,NNW,337,2.0,4.0,96,-99.99,,,-99.99,,2013-04-01 14:02:00,
2013-04-01 07:12:00,44.0,43.0,-100.00,NNW,330,3.0,4.0,96,-99.99,,,-99.99,,2013-04-01 14:12:00,
2013-04-01 07:22:00,44.0,43.0,-100.00,NNW,334,3.0,4.0,97,-99.99,,,-99.99,,2013-04-01 14:22:00,
2013-04-01 07:32:00,44.0,43.0,-100.00,NNW,333,2.0,6.0,97,-99.99,,,-99.99,,2013-04-01 14:32:00,
2013-04-01 07:42:00,44.0,43.0,-100.00,NNW,329,3.0,7.0,98,-99.99,,,-99.99,,2013-04-01 14:42:00,
2013-04-01 07:52:00,44.0,43.0,-100.00,NNW,330,4.0,5.0,98,-99.99,,,-99.99,,2013-04-01 14:52:00,
2013-04-01 08:02:00,45.0,44.0,-100.00,NW,326,4.0,5.0,98,-99.99,,,-99.99,,2013-04-01 15:02:00,
2013-04-01 08:12:00,45.0,44.0,-100.00,NW,319,3.0,5.0,98,-99.99,,,-99.99,,2013-04-01 15:12:00,
2013-04-01 08:22:00,45.0,44.0,-100.00,NW,317,3.0,4.0,98,-99.99,,,-99.99,,2013-04-01 15:22:00,
2013-04-01 08:33:00,45.0,44.0,-100.00,NW,310,2.0,5.0,98,-99.99,,,-99.99,,2013-04-01 15:33:00,
2013-04-01 08:43:00,45.0,44.0,-100.00,NW,321,2.0,7.0,98,-99.99,,,-99.99,,2013-04-01 15:43:00,
2013-04-01 08:50:00,47.0,45.0,-100.00,NW,318,6.0,8.0,94,-99.99,,,-99.99,,2013-04-01 15:50:00,
2013-04-01 08:53:00,46.0,45.0,-100.00,WNW,303,4.0,5.0,97,-99.99,,,-99.99,,2013-04-01 15:53:00,
2013-04-01 09:02:00,46.0,45.0,-100.00,NW,308,3.0,8.0,97,-99.99,,,-99.99,,2013-04-01 16:02:00,
2013-04-01 09:12:00,46.0,45.0,-100.00,NNW,327,4.0,8.0,96,-99.99,,,-99.99,,2013-04-01 16:12:00,
2013-04-01 09:22:00,47.0,45.0,-100.00,NW,318,6.0,8.0,94,-99.99,,,-99.99,,2013-04-01 16:22:00,
2013-04-01 09:32:00,47.0,45.0,-100.00,NW,318,6.0,8.0,94,-99.99,,,-99.99,,2013-04-01 16:32:00,
2013-04-01 09:42:00,47.0,45.0,-100.00,NW,318,6.0,8.0,94,-99.99,,,-99.99,,2013-04-01 16:42:00,
2013-04-01 10:32:00,51.0,43.0,-100.00,WNW,290,7.0,8.0,74,-99.99,,,-99.99,,2013-04-01 17:32:00,
2013-04-01 10:42:00,51.0,42.0,-100.00,NW,320,3.0,14.0,72,-99.99,,,-99.99,,2013-04-01 17:42:00,
2013-04-01 10:52:00,51.0,39.0,-100.00,NNW,336,6.0,17.0,64,-99.99,,,-99.99,,2013-04-01 17:52:00,
2013-04-01 11:02:00,52.0,40.0,-100.00,NNW,332,10.0,15.0,64,-99.99,,,-99.99,,2013-04-01 18:02:00,
2013-04-01 11:11:00,52.0,39.0,-100.00,NNW,333,8.0,16.0,62,-99.99,,,-99.99,,2013-04-01 18:11:00,
2013-04-01 11:22:00,53.0,42.0,-100.00,NW,320,10.0,12.0,65,-99.99,,,-99.99,,2013-04-01 18:22:00,
2013-04-01 11:32:00,53.0,41.0,-100.00,NNW,337,7.0,12.0,63,-99.99,,,-99.99,,2013-04-01 18:32:00,
2013-04-01 11:42:00,54.0,40.0,-100.00,NW,323,8.0,14.0,58,-99.99,,,-99.99,,2013-04-01 18:42:00,
2013-04-01 11:52:00,54.0,40.0,-100.00,NW,321,9.0,16.0,58,-99.99,,,-99.99,,2013-04-01 18:52:00,
2013-04-01 12:03:00,54.0,39.0,-100.00,NW,323,9.0,17.0,57,-99.99,,,-99.99,,2013-04-01 19:03:00,
2013-04-01 12:12:00,55.0,41.0,-100.00,NW,311,10.0,14.0,59,-99.99,,,-99.99,,2013-04-01 19:12:00,
2013-04-01 12:22:00,56.0,41.0,-100.00,NW,304,8.0,12.0,58,-99.99,,,-99.99,,2013-04-01 19:22:00,
2013-04-01 12:32:00,57.0,41.0,-100.00,NW,304,6.0,14.0,56,-99.99,,,-99.99,,2013-04-01 19:32:00,
2013-04-01 12:42:00,56.0,41.0,-100.00,NW,305,6.0,15.0,56,-99.99,,,-99.99,,2013-04-01 19:42:00,
2013-04-01 12:52:00,56.0,40.0,-100.00,NW,308,7.0,18.0,55,-99.99,,,-99.99,,2013-04-01 19:52:00,
2013-04-01 13:02:00,57.0,41.0,-100.00,NW,309,8.0,18.0,56,-99.99,,,-99.99,,2013-04-01 20:02:00,
2013-04-01 13:12:00,57.0,41.0,-100.00,WNW,297,8.0,19.0,56,-99.99,,,-99.99,,2013-04-01 20:12:00,
2013-04-01 13:22:00,57.0,42.0,-100.00,WNW,303,7.0,15.0,57,-99.99,,,-99.99,,2013-04-01 20:22:00,
2013-04-01 13:32:00,57.0,41.0,-100.00,NW,306,7.0,15.0,55,-99.99,,,-99.99,,2013-04-01 20:32:00,
2013-04-01 13:42:00,57.0,41.0,-100.00,NW,312,9.0,16.0,56,-99.99,,,-99.99,,2013-04-01 20:42:00,
2013-04-01 13:51:00,57.0,42.0,-100.00,WNW,297,8.0,20.0,57,-99.99,,,-99.99,,2013-04-01 20:51:00,
2013-04-01 14:02:00,57.0,42.0,-100.00,WNW,303,6.0,21.0,58,-99.99,,,-99.99,,2013-04-01 21:02:00,
2013-04-01 14:11:00,58.0,43.0,-100.00,WNW,301,8.0,15.0,58,-99.99,,,-99.99,,2013-04-01 21:11:00,
2013-04-01 14:22:00,58.0,43.0,-100.00,WNW,286,7.0,13.0,58,-99.99,,,-99.99,,2013-04-01 21:22:00,
2013-04-01 14:32:00,58.0,43.0,-100.00,NW,304,6.0,19.0,57,-99.99,,,-99.99,,2013-04-01 21:32:00,
2013-04-01 14:43:00,58.0,43.0,-100.00,NW,305,7.0,15.0,58,-99.99,,,-99.99,,2013-04-01 21:43:00,
2013-04-01 14:52:00,59.0,44.0,-100.00,WNW,297,6.0,17.0,57,-99.99,,,-99.99,,2013-04-01 21:52:00,
2013-04-01 15:02:00,59.0,43.0,-100.00,WNW,284,7.0,14.0,56,-99.99,,,-99.99,,2013-04-01 22:02:00,
2013-04-01 15:12:00,58.0,43.0,-100.00,NW,306,6.0,21.0,57,-99.99,,,-99.99,,2013-04-01 22:12:00,
2013-04-01 15:22:00,58.0,44.0,-100.00,WNW,287,9.0,15.0,59,-99.99,,,-99.99,,2013-04-01 22:22:00,
2013-04-01 15:33:00,57.0,44.0,-100.00,WNW,283,6.0,14.0,62,-99.99,,,-99.99,,2013-04-01 22:33:00,
2013-04-01 15:42:00,57.0,45.0,-100.00,WNW,283,7.0,14.0,63,-99.99,,,-99.99,,2013-04-01 22:42:00,
2013-04-01 15:52:00,57.0,45.0,-100.00,WNW,291,6.0,15.0,64,-99.99,,,-99.99,,2013-04-01 22:52:00,
2013-04-01 16:02:00,57.0,45.0,-100.00,West,271,7.0,14.0,64,-99.99,,,-99.99,,2013-04-01 23:02:00,
2013-04-01 16:12:00,56.0,45.0,-100.00,WNW,285,6.0,15.0,66,-99.99,,,-99.99,,2013-04-01 23:12:00,
2013-04-01 16:22:00,55.0,44.0,-100.00,NW,309,5.0,16.0,66,-99.99,,,-99.99,,2013-04-01 23:22:00,
2013-04-01 16:32:00,56.0,44.0,-100.00,WNW,287,8.0,14.0,63,-99.99,,,-99.99,,2013-04-01 23:32:00,
2013-04-01 16:42:00,56.0,44.0,-100.00,West,277,7.0,18.0,63,-99.99,,,-99.99,,2013-04-01 23:42:00,
2013-04-01 16:52:00,56.0,44.0,-100.00,WNW,303,6.0,16.0,64,-99.99,,,-99.99,,2013-04-01 23:52:00,
2013-04-01 17:02:00,55.0,44.0,-100.00,WNW,290,8.0,13.0,66,-99.99,,,-99.99,,2013-04-02 00:02:00,
2013-04-01 17:11:00,55.0,44.0,-100.00,WNW,296,6.0,16.0,67,-99.99,,,-99.99,,2013-04-02 00:11:00,
2013-04-01 17:22:00,55.0,45.0,-100.00,WNW,283,6.0,12.0,68,-99.99,,,-99.99,,2013-04-02 00:22:00,
2013-04-01 17:32:00,55.0,45.0,-100.00,WNW,299,5.0,14.0,68,-99.99,,,-99.99,,2013-04-02 00:32:00,
2013-04-01 17:42:00,53.0,44.0,-100.00,NW,310,6.0,15.0,71,-99.99,,,-99.99,,2013-04-02 00:42:00,
2013-04-01 17:52:00,53.0,43.0,-100.00,NW,305,7.0,15.0,70,-99.99,,,-99.99,,2013-04-02 00:52:00,
2013-04-01 18:01:00,53.0,43.0,-100.00,NW,305,7.0,15.0,70,-99.99,,,-99.99,,2013-04-02 01:01:00,
2013-04-01 18:11:00,52.0,43.0,-100.00,WNW,297,6.0,12.0,72,-99.99,,,-99.99,,2013-04-02 01:11:00,
2013-04-01 18:22:00,52.0,44.0,-100.00,NW,309,5.0,13.0,73,-99.99,,,-99.99,,2013-04-02 01:22:00,
2013-04-01 18:32:00,51.0,44.0,-100.00,WNW,302,6.0,14.0,76,-99.99,,,-99.99,,2013-04-02 01:32:00,
2013-04-01 18:42:00,50.0,44.0,-100.00,WNW,296,5.0,13.0,79,-99.99,,,-99.99,,2013-04-02 01:42:00,
2013-04-01 18:52:00,49.0,43.0,-100.00,NW,305,5.0,14.0,81,-99.99,,,-99.99,,2013-04-02 01:52:00,
2013-04-01 19:02:00,49.0,44.0,-100.00,NW,305,5.0,9.0,83,-99.99,,,-99.99,,2013-04-02 02:02:00,
2013-04-01 19:12:00,49.0,45.0,-100.00,WNW,301,5.0,13.0,85,-99.99,,,-99.99,,2013-04-02 02:12:00,
2013-04-01 19:21:00,48.0,44.0,-100.00,NW,308,6.0,11.0,86,-99.99,,,-99.99,,2013-04-02 02:21:00,
2013-04-01 19:32:00,48.0,44.0,-100.00,NW,316,6.0,12.0,87,-99.99,,,-99.99,,2013-04-02 02:32:00,
2013-04-01 19:42:00,48.0,45.0,-100.00,NW,317,6.0,10.0,88,-99.99,,,-99.99,,2013-04-02 02:42:00,
2013-04-01 19:52:00,48.0,45.0,-100.00,NW,318,5.0,12.0,88,-99.99,,,-99.99,,2013-04-02 02:52:00,
2013-04-01 20:02:00,48.0,45.0,-100.00,NW,316,6.0,12.0,90,-99.99,,,-99.99,,2013-04-02 03:02:00,
2013-04-01 20:12:00,47.0,45.0,-100.00,NW,317,7.0,12.0,91,-99.99,,,-99.99,,2013-04-02 03:12:00,
2013-04-01 20:22:00,47.0,45.0,-100.00,NW,314,6.0,11.0,92,-99.99,,,-99.99,,2013-04-02 03:22:00,
2013-04-01 20:33:00,47.0,45.0,-100.00,NW,311,6.0,11.0,94,-99.99,,,-99.99,,2013-04-02 03:33:00,
2013-04-01 20:43:00,47.0,46.0,-100.00,NW,310,6.0,10.0,95,-99.99,,,-99.99,,2013-04-02 03:43:00,
2013-04-01 20:52:00,47.0,46.0,-100.00,NW,314,5.0,9.0,95,-99.99,,,-99.99,,2013-04-02 03:52:00,
2013-04-01 21:02:00,47.0,46.0,-100.00,NW,325,4.0,8.0,96,-99.99,,,-99.99,,2013-04-02 04:02:00,
2013-04-01 21:12:00,47.0,46.0,-100.00,NW,312,5.0,8.0,96,-99.99,,,-99.99,,2013-04-02 04:12:00,
2013-04-01 21:22:00,47.0,46.0,-100.00,NW,304,4.0,8.0,96,-99.99,,,-99.99,,2013-04-02 04:22:00,
2013-04-01 21:32:00,47.0,46.0,-100.00,NW,315,4.0,9.0,97,-99.99,,,-99.99,,2013-04-02 04:32:00,
2013-04-01 21:42:00,47.0,46.0,-100.00,NW,319,4.0,9.0,97,-99.99,,,-99.99,,2013-04-02 04:42:00,
2013-04-01 21:52:00,47.0,46.0,-100.00,NW,318,5.0,9.0,97,-99.99,,,-99.99,,2013-04-02 04:52:00,
2013-04-01 22:02:00,47.0,46.0,-100.00,NW,323,5.0,10.0,97,-99.99,,,-99.99,,2013-04-02 05:02:00,
2013-04-01 22:12:00,47.0,46.0,-100.00,NW,326,6.0,7.0,97,-99.99,,,-99.99,,2013-04-02 05:12:00,
2013-04-01 22:22:00,47.0,46.0,-100.00,NW,324,4.0,8.0,97,-99.99,,,-99.99,,2013-04-02 05:22:00,
2013-04-01 22:32:00,47.0,46.0,-100.00,NNW,331,4.0,7.0,97,-99.99,,,-99.99,,2013-04-02 05:32:00,
2013-04-01 22:42:00,47.0,46.0,-100.00,NW,322,4.0,8.0,97,-99.99,,,-99.99,,2013-04-02 05:42:00,
2013-04-01 22:52:00,47.0,46.0,-100.00,NW,325,5.0,9.0,97,-99.99,,,-99.99,,2013-04-02 05:52:00,
2013-04-01 23:02:00,47.0,46.0,-100.00,NW,326,5.0,7.0,97,-99.99,,,-99.99,,2013-04-02 06:02:00,
2013-04-01 23:12:00,47.0,46.0,-100.00,NW,325,4.0,9.0,97,-99.99,,,-99.99,,2013-04-02 06:12:00,
2013-04-01 23:22:00,47.0,46.0,-100.00,NW,321,4.0,9.0,97,-99.99,,,-99.99,,2013-04-02 06:22:00,
2013-04-01 23:32:00,47.0,46.0,-100.00,NNW,333,5.0,9.0,97,-99.99,,,-99.99,,2013-04-02 06:32:00,
2013-04-01 23:42:00,47.0,46.0,-100.00,NW,325,5.0,8.0,97,-99.99,,,-99.99,,2013-04-02 06:42:00,
2013-04-01 23:52:00,46.0,45.0,-100.00,NW,320,5.0,7.0,97,-99.99,,,-99.99,,2013-04-02 06:52:00,